GEFSSE_prec_meanprecacc_060.txt.gz
Total_Precipitation_Accumulation
0.00 0.00 0.01 0.01 0.01 0.03 0.03 0.02 0.01 0.01 0.01 0.01 0.02 0.02 0.01 0.01 0.00 0.00 0.01 0.01 0.01 0.02 0.03 0.04 0.04 0.03 0.03 0.03 0.02 0.01 0.00 0.00 0.00 0.00 0.00 0.01 0.01 0.01 0.02 0.02 0.07 0.08 0.02
0.00 0.00 0.01 0.01 0.02 0.04 0.05 0.05 0.03 0.02 0.01 0.01 0.01 0.02 0.02 0.01 0.00 0.00 0.00 0.00 0.01 0.01 0.02 0.03 0.02 0.01 0.01 0.01 0.01 0.01 0.01 0.00 0.00 0.00 0.00 0.00 0.00 0.01 0.01 0.02 0.06 0.06 0.01
0.00 0.00 0.00 0.01 0.01 0.03 0.05 0.06 0.06 0.05 0.02 0.01 0.01 0.03 0.06 0.03 0.01 0.00 0.00 0.00 0.00 0.00 0.00 0.01 0.01 0.01 0.00 0.00 0.00 0.01 0.01 0.01 0.00 0.00 0.02 0.05 0.01 0.01 0.01 0.01 0.01 0.01 0.00
0.00 0.00 0.00 0.00 0.01 0.02 0.03 0.05 0.07 0.06 0.03 0.02 0.04 0.06 0.07 0.04 0.01 0.00 0.00 0.00 0.00 0.00 0.00 0.00 0.01 0.01 0.00 0.00 0.00 0.00 0.00 0.00 0.00 0.00 0.04 0.12 0.07 0.03 0.02 0.02 0.01 0.01 0.00
0.00 0.00 0.01 0.01 0.01 0.02 0.02 0.03 0.07 0.09 0.07 0.05 0.08 0.09 0.07 0.06 0.04 0.02 0.02 0.03 0.02 0.00 0.00 0.00 0.01 0.01 0.00 0.00 0.00 0.00 0.00 0.00 0.00 0.00 0.02 0.07 0.14 0.09 0.05 0.09 0.09 0.07 0.04
0.00 0.00 0.00 0.02 0.02 0.02 0.02 0.02 0.04 0.09 0.09 0.07 0.08 0.11 0.09 0.11 0.12 0.07 0.03 0.04 0.05 0.02 0.01 0.01 0.00 0.00 0.01 0.01 0.00 0.00 0.00 0.00 0.00 0.01 0.02 0.03 0.16 0.20 0.13 0.23 0.26 0.22 0.16
0.00 0.00 0.00 0.02 0.02 0.01 0.02 0.03 0.03 0.05 0.06 0.05 0.05 0.05 0.05 0.08 0.15 0.11 0.07 0.05 0.05 0.03 0.02 0.01 0.01 0.01 0.01 0.01 0.01 0.01 0.01 0.00 0.01 0.02 0.02 0.02 0.08 0.11 0.16 0.33 0.44 0.43 0.36
0.00 0.00 0.00 0.01 0.01 0.01 0.01 0.02 0.04 0.04 0.02 0.02 0.01 0.01 0.01 0.02 0.04 0.06 0.07 0.06 0.04 0.02 0.02 0.01 0.01 0.01 0.02 0.03 0.03 0.02 0.03 0.02 0.01 0.03 0.02 0.04 0.08 0.11 0.25 0.41 0.51 0.53 0.52
0.00 0.00 0.00 0.00 0.01 0.00 0.00 0.01 0.02 0.02 0.02 0.01 0.01 0.00 0.01 0.01 0.03 0.05 0.05 0.05 0.06 0.05 0.03 0.02 0.02 0.03 0.03 0.03 0.02 0.02 0.02 0.02 0.02 0.03 0.04 0.11 0.24 0.28 0.44 0.55 0.56 0.57 0.58
0.00 0.00 0.00 0.01 0.01 0.01 0.01 0.01 0.02 0.02 0.02 0.01 0.01 0.01 0.01 0.01 0.02 0.04 0.04 0.05 0.07 0.08 0.06 0.04 0.03 0.03 0.04 0.03 0.02 0.03 0.03 0.02 0.01 0.01 0.03 0.09 0.21 0.36 0.50 0.55 0.59 0.62 0.63
0.00 0.00 0.00 0.01 0.01 0.01 0.01 0.00 0.01 0.01 0.01 0.01 0.02 0.03 0.02 0.02 0.05 0.11 0.09 0.13 0.12 0.13 0.12 0.09 0.09 0.09 0.08 0.04 0.06 0.11 0.06 0.02 0.01 0.01 0.02 0.10 0.21 0.37 0.51 0.51 0.56 0.66 0.71
0.00 0.00 0.00 0.00 0.01 0.01 0.00 0.00 0.00 0.00 0.01 0.01 0.03 0.10 0.13 0.17 0.14 0.06 0.12 0.19 0.27 0.34 0.27 0.23 0.24 0.17 0.15 0.13 0.39 0.62 0.14 0.05 0.05 0.05 0.05 0.11 0.25 0.52 0.62 0.55 0.54 0.59 0.61
0.00 0.00 0.00 0.00 0.00 0.00 0.00 0.00 0.00 0.00 0.02 0.02 0.03 0.08 0.14 0.13 0.08 0.03 0.06 0.19 0.30 0.38 0.32 0.44 0.51 0.43 0.42 0.39 0.49 0.59 0.24 0.17 0.14 0.12 0.14 0.20 0.32 0.59 0.75 0.60 0.52 0.49 0.46
0.01 0.01 0.00 0.01 0.01 0.01 0.00 0.00 0.00 0.00 0.01 0.01 0.03 0.04 0.09 0.11 0.08 0.09 0.15 0.21 0.29 0.33 0.47 0.44 0.55 0.55 0.47 0.43 0.45 0.44 0.38 0.35 0.29 0.33 0.40 0.29 0.29 0.48 0.72 0.61 0.49 0.43 0.44
0.02 0.02 0.02 0.02 0.03 0.03 0.02 0.02 0.01 0.01 0.02 0.03 0.04 0.06 0.09 0.14 0.19 0.23 0.21 0.24 0.21 0.32 0.46 0.50 0.45 0.57 0.69 0.63 0.53 0.49 0.51 0.50 0.43 0.49 0.50 0.41 0.33 0.39 0.57 0.60 0.53 0.48 0.47
0.06 0.05 0.06 0.07 0.08 0.08 0.08 0.08 0.07 0.06 0.08 0.08 0.10 0.12 0.18 0.24 0.35 0.41 0.41 0.44 0.40 0.48 0.61 0.67 0.66 0.93 0.88 0.83 0.70 0.62 0.58 0.58 0.54 0.49 0.46 0.45 0.39 0.33 0.38 0.49 0.55 0.52 0.49
0.26 0.19 0.17 0.18 0.18 0.21 0.21 0.19 0.22 0.24 0.21 0.21 0.27 0.30 0.38 0.44 0.57 0.64 0.69 0.68 0.76 0.79 0.88 0.90 0.99 1.10 0.90 0.84 0.70 0.64 0.57 0.52 0.46 0.44 0.46 0.50 0.47 0.38 0.28 0.32 0.42 0.45 0.49
0.49 0.43 0.46 0.49 0.46 0.42 0.43 0.45 0.48 0.43 0.39 0.41 0.52 0.56 0.57 0.64 0.77 0.90 0.88 0.86 1.12 1.21 1.25 1.31 1.36 1.33 1.21 1.09 0.87 0.66 0.55 0.53 0.39 0.32 0.31 0.33 0.36 0.29 0.26 0.33 0.38 0.40 0.46
0.94 0.98 0.99 0.90 0.84 0.74 0.73 0.73 0.74 0.74 0.64 0.60 0.68 0.76 0.85 0.84 0.94 1.08 0.98 1.07 1.30 1.40 1.46 1.38 1.55 1.48 1.42 1.33 1.07 0.80 0.58 0.44 0.33 0.26 0.20 0.18 0.22 0.22 0.19 0.23 0.27 0.30 0.44
1.25 1.40 1.43 1.30 1.33 1.39 1.33 1.19 1.13 0.97 0.84 0.83 0.89 0.95 1.00 0.99 1.08 1.25 1.14 1.22 1.42 1.53 1.50 1.54 1.58 1.58 1.47 1.42 1.10 0.79 0.59 0.40 0.28 0.21 0.17 0.15 0.13 0.13 0.14 0.18 0.28 0.27 0.38
1.65 1.69 1.79 2.07 2.12 2.03 1.76 1.41 1.29 1.19 1.16 1.10 1.02 0.96 0.98 0.98 1.07 1.28 1.22 1.34 1.39 1.36 1.40 1.56 1.67 1.49 1.33 1.49 1.25 0.74 0.45 0.33 0.27 0.24 0.24 0.24 0.18 0.15 0.15 0.18 0.23 0.31 0.37
1.94 2.12 2.10 1.99 2.00 1.90 1.79 1.75 1.76 1.77 1.52 1.27 1.16 1.06 1.03 1.10 1.18 1.19 1.20 1.20 1.22 1.31 1.37 1.45 1.64 1.45 1.15 1.33 1.30 1.03 0.57 0.41 0.36 0.27 0.29 0.30 0.25 0.22 0.21 0.23 0.28 0.40 0.42
1.50 1.67 1.76 1.79 1.66 1.59 1.65 1.77 1.81 1.82 1.59 1.38 1.26 1.19 1.12 1.12 1.09 1.10 1.10 1.20 1.36 1.43 1.34 1.35 1.43 1.37 1.11 1.12 1.25 1.29 0.89 0.61 0.44 0.23 0.24 0.28 0.35 0.40 0.35 0.36 0.37 0.44 0.49
1.26 1.35 1.38 1.40 1.38 1.40 1.49 1.58 1.56 1.53 1.41 1.36 1.36 1.25 1.15 1.07 1.04 1.03 1.06 1.09 1.11 1.12 1.10 1.04 1.14 1.25 1.21 1.06 1.16 1.22 1.16 1.02 0.82 0.45 0.32 0.34 0.45 0.49 0.49 0.44 0.38 0.39 0.52
0.93 1.04 1.12 1.20 1.18 1.19 1.21 1.25 1.26 1.23 1.23 1.23 1.16 1.07 0.98 0.92 0.95 0.94 0.90 0.88 0.83 0.83 0.90 0.93 0.99 1.05 1.09 1.05 1.07 1.14 1.16 1.16 1.17 0.98 0.62 0.59 0.59 0.50 0.53 0.50 0.46 0.46 0.56
0.84 0.93 1.00 1.04 1.05 1.05 1.05 1.06 1.06 1.05 1.05 1.04 0.99 0.98 0.92 0.87 0.80 0.79 0.80 0.81 0.77 0.78 0.84 0.88 0.90 0.87 0.92 0.97 1.03 1.09 1.12 1.12 1.20 1.27 1.00 0.85 0.73 0.60 0.62 0.56 0.52 0.53 0.60

GEFSSE_prec_meanprecacc_066.txt.gz
Total_Precipitation_Accumulation
0.00 0.00 0.01 0.01 0.01 0.03 0.03 0.02 0.02 0.01 0.01 0.01 0.02 0.02 0.02 0.01 0.00 0.00 0.01 0.01 0.01 0.02 0.03 0.04 0.04 0.03 0.03 0.03 0.02 0.01 0.00 0.00 0.00 0.00 0.01 0.01 0.02 0.04 0.04 0.03 0.08 0.09 0.03
0.00 0.00 0.01 0.01 0.02 0.04 0.05 0.05 0.04 0.02 0.01 0.01 0.01 0.02 0.02 0.01 0.01 0.00 0.00 0.01 0.01 0.01 0.02 0.03 0.02 0.01 0.01 0.01 0.01 0.01 0.01 0.00 0.00 0.00 0.01 0.01 0.02 0.04 0.05 0.03 0.06 0.06 0.02
0.00 0.00 0.00 0.01 0.01 0.03 0.05 0.06 0.06 0.05 0.02 0.01 0.01 0.04 0.06 0.03 0.01 0.00 0.00 0.00 0.00 0.00 0.00 0.01 0.01 0.01 0.00 0.00 0.00 0.01 0.01 0.01 0.00 0.01 0.03 0.05 0.02 0.04 0.06 0.02 0.01 0.01 0.01
0.00 0.00 0.00 0.00 0.01 0.02 0.03 0.05 0.07 0.07 0.03 0.02 0.04 0.06 0.07 0.05 0.01 0.01 0.01 0.00 0.00 0.00 0.00 0.00 0.01 0.01 0.00 0.00 0.00 0.00 0.00 0.00 0.00 0.01 0.05 0.12 0.07 0.05 0.06 0.05 0.02 0.01 0.01
0.00 0.00 0.01 0.01 0.01 0.02 0.02 0.03 0.07 0.09 0.07 0.05 0.08 0.09 0.07 0.06 0.04 0.02 0.02 0.03 0.02 0.00 0.00 0.00 0.01 0.01 0.00 0.00 0.00 0.00 0.00 0.00 0.01 0.01 0.02 0.07 0.14 0.10 0.09 0.12 0.10 0.08 0.05
0.00 0.00 0.00 0.02 0.02 0.02 0.02 0.02 0.04 0.09 0.09 0.07 0.09 0.11 0.09 0.11 0.12 0.07 0.03 0.04 0.05 0.02 0.01 0.01 0.00 0.00 0.01 0.01 0.00 0.00 0.00 0.00 0.01 0.01 0.02 0.03 0.16 0.21 0.17 0.28 0.30 0.24 0.17
0.00 0.00 0.00 0.02 0.02 0.01 0.02 0.03 0.04 0.05 0.06 0.05 0.05 0.05 0.05 0.08 0.15 0.11 0.07 0.05 0.05 0.03 0.02 0.01 0.01 0.01 0.01 0.01 0.01 0.01 0.01 0.00 0.01 0.02 0.02 0.02 0.08 0.12 0.20 0.40 0.50 0.47 0.39
0.00 0.00 0.00 0.01 0.01 0.01 0.01 0.02 0.04 0.04 0.02 0.02 0.01 0.01 0.01 0.02 0.04 0.06 0.07 0.06 0.04 0.02 0.02 0.01 0.01 0.01 0.02 0.03 0.03 0.02 0.03 0.02 0.01 0.03 0.02 0.04 0.08 0.11 0.29 0.49 0.59 0.60 0.57
0.00 0.00 0.00 0.01 0.01 0.01 0.01 0.01 0.02 0.02 0.02 0.01 0.01 0.01 0.01 0.01 0.03 0.05 0.05 0.05 0.06 0.05 0.03 0.02 0.02 0.03 0.03 0.03 0.02 0.02 0.02 0.02 0.02 0.03 0.04 0.11 0.24 0.29 0.50 0.63 0.63 0.65 0.65
0.00 0.00 0.00 0.01 0.01 0.01 0.01 0.01 0.02 0.02 0.02 0.01 0.01 0.01 0.01 0.01 0.02 0.04 0.04 0.05 0.07 0.08 0.06 0.04 0.04 0.04 0.04 0.03 0.02 0.03 0.03 0.02 0.01 0.01 0.03 0.09 0.21 0.38 0.56 0.64 0.68 0.70 0.70
0.00 0.01 0.00 0.01 0.01 0.01 0.01 0.01 0.01 0.01 0.02 0.02 0.02 0.03 0.03 0.02 0.05 0.11 0.10 0.14 0.14 0.15 0.16 0.14 0.12 0.11 0.10 0.06 0.07 0.12 0.07 0.02 0.01 0.01 0.02 0.11 0.22 0.41 0.59 0.62 0.67 0.75 0.79
0.00 0.01 0.01 0.01 0.01 0.01 0.01 0.01 0.01 0.01 0.02 0.01 0.04 0.10 0.14 0.18 0.14 0.07 0.14 0.25 0.35 0.46 0.42 0.38 0.38 0.28 0.22 0.17 0.43 0.66 0.17 0.06 0.06 0.06 0.05 0.11 0.29 0.58 0.71 0.66 0.64 0.69 0.70
0.01 0.01 0.01 0.01 0.01 0.01 0.01 0.00 0.01 0.01 0.03 0.03 0.04 0.09 0.15 0.14 0.09 0.04 0.09 0.24 0.40 0.52 0.46 0.61 0.69 0.56 0.54 0.49 0.55 0.63 0.27 0.21 0.17 0.14 0.16 0.23 0.39 0.68 0.87 0.71 0.62 0.59 0.56
0.03 0.03 0.02 0.01 0.02 0.01 0.01 0.02 0.02 0.03 0.03 0.03 0.05 0.07 0.11 0.14 0.13 0.15 0.22 0.29 0.37 0.42 0.59 0.57 0.68 0.68 0.59 0.54 0.55 0.54 0.46 0.42 0.35 0.38 0.44 0.34 0.39 0.61 0.88 0.76 0.62 0.56 0.58
0.06 0.08 0.08 0.06 0.05 0.05 0.05 0.06 0.07 0.08 0.09 0.09 0.10 0.13 0.18 0.24 0.30 0.38 0.35 0.37 0.34 0.44 0.60 0.63 0.58 0.71 0.82 0.76 0.65 0.61 0.62 0.60 0.52 0.56 0.55 0.45 0.43 0.53 0.74 0.79 0.70 0.66 0.65
0.15 0.18 0.22 0.23 0.24 0.25 0.26 0.26 0.25 0.25 0.28 0.28 0.30 0.31 0.38 0.43 0.55 0.62 0.60 0.60 0.54 0.60 0.71 0.76 0.76 1.04 1.00 0.95 0.79 0.72 0.69 0.65 0.60 0.54 0.49 0.47 0.43 0.41 0.49 0.64 0.73 0.70 0.69
0.39 0.39 0.46 0.54 0.60 0.62 0.60 0.57 0.59 0.65 0.64 0.58 0.58 0.62 0.67 0.69 0.84 0.91 0.93 0.86 0.88 0.89 0.98 0.99 1.08 1.19 0.97 0.92 0.78 0.73 0.65 0.59 0.51 0.48 0.49 0.52 0.50 0.42 0.34 0.40 0.54 0.62 0.68
0.69 0.73 0.89 1.01 1.05 1.07 1.05 1.03 1.04 0.99 0.90 0.82 0.88 0.96 0.96 0.98 1.12 1.18 1.06 1.00 1.22 1.29 1.32 1.37 1.41 1.37 1.25 1.13 0.92 0.72 0.59 0.58 0.42 0.34 0.33 0.35 0.39 0.31 0.30 0.39 0.48 0.54 0.65
1.25 1.38 1.51 1.57 1.55 1.49 1.47 1.47 1.47 1.38 1.19 1.04 1.05 1.09 1.15 1.12 1.19 1.29 1.14 1.18 1.38 1.46 1.50 1.41 1.58 1.51 1.44 1.35 1.08 0.82 0.60 0.48 0.36 0.27 0.21 0.19 0.23 0.24 0.22 0.27 0.33 0.38 0.57
1.62 1.84 1.95 1.96 2.10 2.16 2.11 1.98 1.89 1.65 1.39 1.27 1.29 1.31 1.28 1.22 1.27 1.42 1.29 1.33 1.49 1.57 1.53 1.56 1.59 1.59 1.48 1.42 1.11 0.80 0.60 0.42 0.30 0.22 0.18 0.15 0.14 0.14 0.16 0.21 0.31 0.31 0.45
1.94 2.17 2.37 2.78 2.89 2.78 2.53 2.19 1.96 1.78 1.70 1.57 1.44 1.33 1.28 1.24 1.28 1.44 1.34 1.42 1.44 1.40 1.43 1.58 1.68 1.50 1.34 1.50 1.25 0.74 0.46 0.33 0.27 0.24 0.24 0.24 0.19 0.16 0.17 0.21 0.25 0.32 0.39
2.09 2.38 2.41 2.35 2.47 2.52 2.40 2.26 2.20 2.21 1.94 1.71 1.58 1.39 1.29 1.31 1.34 1.31 1.29 1.25 1.25 1.34 1.40 1.47 1.66 1.47 1.16 1.34 1.30 1.04 0.57 0.41 0.36 0.27 0.29 0.30 0.25 0.22 0.22 0.24 0.29 0.41 0.43
1.55 1.73 1.84 1.87 1.78 1.76 1.82 1.94 1.97 2.00 1.79 1.60 1.50 1.43 1.34 1.29 1.21 1.18 1.16 1.25 1.40 1.46 1.35 1.37 1.45 1.38 1.12 1.12 1.25 1.30 0.89 0.61 0.44 0.23 0.24 0.28 0.35 0.41 0.36 0.37 0.38 0.44 0.49
1.30 1.40 1.42 1.44 1.43 1.45 1.56 1.65 1.64 1.62 1.52 1.47 1.47 1.37 1.29 1.22 1.16 1.12 1.12 1.13 1.14 1.15 1.13 1.06 1.15 1.26 1.22 1.06 1.16 1.22 1.16 1.02 0.82 0.45 0.32 0.34 0.45 0.49 0.49 0.45 0.39 0.39 0.52
0.97 1.08 1.17 1.24 1.24 1.25 1.28 1.32 1.35 1.33 1.33 1.35 1.28 1.20 1.12 1.07 1.09 1.06 0.99 0.96 0.89 0.89 0.95 0.97 1.01 1.07 1.09 1.06 1.07 1.14 1.16 1.17 1.17 0.98 0.62 0.59 0.59 0.50 0.53 0.51 0.46 0.47 0.56
0.87 0.97 1.04 1.10 1.11 1.11 1.13 1.15 1.15 1.15 1.16 1.15 1.11 1.10 1.05 1.00 0.93 0.90 0.91 0.90 0.87 0.88 0.92 0.94 0.94 0.89 0.93 0.98 1.03 1.09 1.12 1.12 1.20 1.27 1.00 0.85 0.73 0.60 0.62 0.56 0.52 0.53 0.60

GEFSSE_prec_meanprecacc_072.txt.gz
Total_Precipitation_Accumulation
0.00 0.00 0.02 0.01 0.01 0.03 0.03 0.02 0.02 0.01 0.01 0.01 0.02 0.02 0.02 0.01 0.00 0.00 0.01 0.01 0.01 0.02 0.03 0.04 0.04 0.03 0.03 0.03 0.02 0.02 0.01 0.00 0.01 0.01 0.01 0.02 0.03 0.05 0.07 0.04 0.09 0.10 0.04
0.00 0.00 0.01 0.01 0.02 0.04 0.06 0.06 0.04 0.02 0.01 0.01 0.01 0.02 0.02 0.01 0.01 0.00 0.00 0.01 0.01 0.01 0.02 0.03 0.02 0.01 0.01 0.02 0.02 0.01 0.01 0.00 0.01 0.01 0.01 0.01 0.03 0.05 0.07 0.03 0.08 0.08 0.03
0.00 0.00 0.01 0.01 0.01 0.03 0.05 0.06 0.06 0.05 0.02 0.01 0.02 0.04 0.06 0.03 0.01 0.01 0.01 0.01 0.00 0.00 0.00 0.01 0.02 0.01 0.00 0.00 0.00 0.01 0.01 0.01 0.01 0.01 0.04 0.06 0.03 0.04 0.07 0.03 0.02 0.02 0.01
0.00 0.00 0.00 0.01 0.01 0.02 0.03 0.05 0.07 0.07 0.03 0.03 0.04 0.07 0.07 0.05 0.01 0.01 0.01 0.01 0.00 0.00 0.00 0.00 0.01 0.01 0.00 0.00 0.00 0.00 0.00 0.01 0.01 0.01 0.06 0.14 0.08 0.06 0.07 0.06 0.03 0.02 0.02
0.00 0.00 0.01 0.01 0.01 0.02 0.02 0.03 0.07 0.09 0.07 0.05 0.08 0.09 0.08 0.06 0.04 0.03 0.02 0.03 0.02 0.01 0.01 0.01 0.01 0.01 0.00 0.00 0.00 0.00 0.00 0.01 0.01 0.01 0.03 0.09 0.17 0.11 0.10 0.14 0.12 0.09 0.06
0.00 0.00 0.00 0.02 0.02 0.03 0.02 0.02 0.05 0.09 0.09 0.07 0.09 0.11 0.09 0.11 0.13 0.07 0.03 0.04 0.05 0.02 0.01 0.01 0.01 0.01 0.01 0.01 0.00 0.00 0.00 0.01 0.01 0.02 0.02 0.04 0.18 0.23 0.19 0.30 0.32 0.26 0.18
0.00 0.00 0.00 0.02 0.02 0.01 0.02 0.03 0.04 0.05 0.06 0.05 0.05 0.05 0.05 0.08 0.15 0.11 0.07 0.05 0.05 0.04 0.02 0.01 0.01 0.01 0.01 0.01 0.01 0.01 0.01 0.00 0.01 0.03 0.02 0.03 0.11 0.14 0.22 0.43 0.55 0.51 0.41
0.00 0.00 0.00 0.01 0.02 0.01 0.01 0.02 0.04 0.04 0.02 0.02 0.01 0.01 0.01 0.02 0.04 0.06 0.07 0.06 0.04 0.02 0.02 0.02 0.02 0.02 0.02 0.03 0.03 0.03 0.03 0.02 0.02 0.03 0.02 0.05 0.09 0.13 0.32 0.54 0.65 0.67 0.61
0.00 0.00 0.00 0.01 0.01 0.01 0.01 0.01 0.02 0.02 0.02 0.01 0.01 0.01 0.01 0.02 0.03 0.05 0.06 0.06 0.06 0.05 0.04 0.03 0.03 0.03 0.03 0.03 0.02 0.02 0.02 0.02 0.02 0.04 0.04 0.12 0.24 0.30 0.53 0.70 0.69 0.71 0.71
0.00 0.00 0.00 0.01 0.02 0.02 0.02 0.02 0.02 0.02 0.02 0.02 0.01 0.01 0.01 0.01 0.02 0.04 0.04 0.05 0.08 0.09 0.07 0.05 0.04 0.04 0.05 0.03 0.03 0.03 0.03 0.02 0.01 0.02 0.04 0.09 0.22 0.39 0.60 0.71 0.76 0.77 0.76
0.01 0.01 0.01 0.02 0.02 0.02 0.02 0.02 0.02 0.03 0.03 0.03 0.04 0.04 0.04 0.03 0.06 0.11 0.11 0.15 0.15 0.17 0.18 0.16 0.15 0.14 0.12 0.08 0.09 0.14 0.09 0.02 0.01 0.02 0.03 0.11 0.23 0.42 0.63 0.70 0.75 0.82 0.85
0.01 0.01 0.02 0.02 0.02 0.02 0.02 0.02 0.03 0.03 0.04 0.04 0.06 0.13 0.17 0.21 0.17 0.09 0.16 0.27 0.38 0.51 0.47 0.43 0.46 0.35 0.28 0.22 0.49 0.73 0.20 0.08 0.08 0.07 0.07 0.12 0.29 0.60 0.74 0.70 0.70 0.75 0.77
0.01 0.01 0.01 0.02 0.03 0.03 0.02 0.02 0.03 0.04 0.06 0.07 0.07 0.13 0.19 0.19 0.13 0.08 0.13 0.29 0.45 0.59 0.55 0.72 0.82 0.66 0.64 0.61 0.69 0.73 0.33 0.25 0.21 0.18 0.19 0.25 0.41 0.70 0.90 0.75 0.67 0.66 0.64
0.03 0.04 0.03 0.03 0.04 0.04 0.03 0.03 0.04 0.05 0.06 0.07 0.09 0.11 0.18 0.20 0.19 0.21 0.28 0.35 0.44 0.52 0.71 0.71 0.83 0.82 0.75 0.71 0.72 0.67 0.54 0.49 0.41 0.43 0.50 0.38 0.43 0.65 0.92 0.81 0.67 0.62 0.66
0.08 0.10 0.10 0.08 0.08 0.08 0.08 0.09 0.08 0.10 0.12 0.13 0.16 0.20 0.27 0.33 0.38 0.46 0.44 0.48 0.45 0.56 0.73 0.78 0.74 0.88 0.99 0.93 0.81 0.73 0.71 0.67 0.58 0.63 0.62 0.51 0.48 0.57 0.78 0.84 0.76 0.72 0.73
0.18 0.24 0.28 0.30 0.31 0.31 0.31 0.31 0.31 0.33 0.36 0.39 0.40 0.41 0.49 0.56 0.68 0.77 0.75 0.75 0.69 0.75 0.86 0.92 0.93 1.24 1.18 1.14 0.94 0.85 0.81 0.76 0.68 0.61 0.56 0.56 0.49 0.45 0.54 0.70 0.80 0.78 0.77
0.44 0.46 0.56 0.63 0.68 0.70 0.67 0.67 0.70 0.76 0.77 0.76 0.76 0.79 0.84 0.85 1.01 1.08 1.08 1.01 1.04 1.03 1.13 1.14 1.26 1.40 1.14 1.08 0.94 0.91 0.81 0.72 0.60 0.56 0.58 0.60 0.55 0.47 0.38 0.45 0.61 0.70 0.78
0.74 0.78 0.98 1.10 1.14 1.15 1.13 1.12 1.15 1.13 1.07 1.00 1.06 1.18 1.19 1.21 1.34 1.40 1.25 1.18 1.40 1.46 1.46 1.52 1.57 1.54 1.41 1.30 1.10 0.88 0.74 0.70 0.49 0.40 0.39 0.40 0.43 0.36 0.34 0.43 0.53 0.59 0.73
1.30 1.45 1.60 1.67 1.65 1.60 1.61 1.64 1.69 1.64 1.46 1.34 1.35 1.39 1.41 1.35 1.39 1.51 1.35 1.39 1.57 1.63 1.64 1.52 1.70 1.63 1.57 1.48 1.20 0.94 0.70 0.55 0.42 0.31 0.24 0.21 0.26 0.27 0.25 0.30 0.35 0.41 0.62
1.68 1.91 2.00 2.03 2.19 2.27 2.26 2.15 2.12 1.93 1.70 1.62 1.64 1.67 1.60 1.49 1.50 1.63 1.49 1.54 1.69 1.74 1.66 1.66 1.69 1.68 1.57 1.51 1.17 0.85 0.66 0.46 0.33 0.25 0.19 0.16 0.15 0.16 0.18 0.22 0.33 0.33 0.47
2.00 2.22 2.41 2.84 2.97 2.90 2.70 2.39 2.20 2.08 2.00 1.86 1.72 1.62 1.59 1.55 1.58 1.68 1.53 1.61 1.65 1.58 1.59 1.72 1.78 1.58 1.40 1.56 1.31 0.79 0.49 0.35 0.29 0.26 0.26 0.25 0.19 0.17 0.18 0.22 0.28 0.35 0.42
2.14 2.41 2.44 2.38 2.52 2.58 2.50 2.40 2.35 2.37 2.12 1.88 1.76 1.60 1.50 1.53 1.56 1.51 1.46 1.41 1.41 1.48 1.51 1.57 1.74 1.52 1.20 1.38 1.34 1.07 0.59 0.43 0.37 0.28 0.30 0.30 0.25 0.23 0.23 0.25 0.31 0.43 0.45
1.57 1.75 1.86 1.89 1.81 1.79 1.85 1.99 2.05 2.09 1.89 1.72 1.63 1.59 1.50 1.46 1.38 1.34 1.31 1.38 1.52 1.56 1.44 1.44 1.51 1.44 1.17 1.16 1.29 1.32 0.90 0.62 0.45 0.23 0.24 0.28 0.36 0.41 0.37 0.38 0.39 0.46 0.51
1.32 1.41 1.43 1.45 1.44 1.46 1.57 1.67 1.67 1.67 1.57 1.54 1.55 1.46 1.41 1.36 1.30 1.26 1.26 1.26 1.26 1.25 1.21 1.13 1.22 1.32 1.27 1.10 1.20 1.25 1.17 1.03 0.82 0.45 0.32 0.34 0.45 0.50 0.50 0.46 0.40 0.41 0.53
0.97 1.08 1.17 1.25 1.25 1.25 1.28 1.33 1.37 1.35 1.36 1.39 1.32 1.26 1.19 1.16 1.21 1.20 1.13 1.09 1.02 1.01 1.05 1.05 1.09 1.13 1.15 1.11 1.11 1.17 1.18 1.18 1.18 0.98 0.63 0.59 0.59 0.51 0.54 0.51 0.47 0.47 0.57
0.88 0.98 1.05 1.10 1.12 1.12 1.13 1.15 1.16 1.16 1.17 1.17 1.13 1.13 1.10 1.05 0.99 0.98 0.99 0.99 0.95 0.97 1.01 1.02 1.01 0.95 0.99 1.03 1.08 1.14 1.15 1.14 1.21 1.27 1.00 0.85 0.73 0.60 0.62 0.56 0.52 0.54 0.61

GEFSSE_prec_meanprecacc_078.txt.gz
Total_Precipitation_Accumulation
0.00 0.00 0.02 0.01 0.01 0.03 0.03 0.03 0.02 0.01 0.01 0.02 0.02 0.02 0.02 0.01 0.00 0.00 0.01 0.01 0.01 0.02 0.03 0.04 0.04 0.04 0.03 0.03 0.03 0.02 0.01 0.00 0.01 0.01 0.01 0.02 0.03 0.05 0.08 0.07 0.17 0.14 0.06
0.00 0.00 0.01 0.01 0.02 0.04 0.06 0.06 0.04 0.03 0.01 0.01 0.01 0.02 0.02 0.01 0.01 0.00 0.00 0.01 0.01 0.01 0.02 0.03 0.03 0.02 0.01 0.02 0.02 0.01 0.01 0.00 0.01 0.01 0.01 0.01 0.03 0.05 0.08 0.07 0.19 0.12 0.04
0.00 0.00 0.01 0.01 0.01 0.03 0.05 0.06 0.06 0.05 0.02 0.01 0.02 0.04 0.07 0.03 0.01 0.01 0.01 0.01 0.01 0.01 0.01 0.02 0.02 0.01 0.01 0.01 0.01 0.01 0.01 0.01 0.01 0.02 0.09 0.10 0.03 0.05 0.07 0.06 0.06 0.03 0.02
0.00 0.00 0.00 0.01 0.01 0.02 0.03 0.05 0.07 0.07 0.03 0.03 0.05 0.07 0.08 0.05 0.02 0.01 0.01 0.01 0.01 0.00 0.01 0.01 0.02 0.01 0.00 0.00 0.00 0.00 0.00 0.01 0.01 0.03 0.21 0.21 0.09 0.06 0.07 0.06 0.04 0.03 0.03
0.00 0.00 0.01 0.01 0.01 0.02 0.02 0.03 0.07 0.10 0.07 0.06 0.08 0.10 0.08 0.07 0.04 0.03 0.02 0.03 0.02 0.01 0.01 0.01 0.01 0.01 0.00 0.00 0.00 0.00 0.00 0.01 0.01 0.05 0.13 0.15 0.19 0.12 0.10 0.14 0.13 0.10 0.06
0.00 0.00 0.00 0.02 0.02 0.03 0.02 0.02 0.05 0.10 0.09 0.07 0.09 0.12 0.10 0.11 0.13 0.08 0.04 0.05 0.05 0.03 0.01 0.01 0.01 0.01 0.01 0.01 0.00 0.00 0.00 0.01 0.02 0.04 0.05 0.08 0.23 0.24 0.19 0.30 0.32 0.26 0.19
0.00 0.00 0.00 0.02 0.02 0.02 0.02 0.03 0.04 0.05 0.06 0.05 0.06 0.05 0.05 0.08 0.15 0.12 0.08 0.06 0.05 0.04 0.02 0.01 0.01 0.01 0.01 0.01 0.01 0.01 0.01 0.01 0.02 0.06 0.04 0.06 0.14 0.14 0.22 0.43 0.56 0.52 0.42
0.00 0.00 0.00 0.01 0.02 0.01 0.01 0.02 0.04 0.04 0.03 0.02 0.01 0.01 0.02 0.03 0.04 0.07 0.08 0.07 0.05 0.02 0.02 0.02 0.02 0.02 0.02 0.03 0.03 0.03 0.03 0.02 0.02 0.03 0.03 0.07 0.10 0.13 0.32 0.55 0.65 0.67 0.62
0.00 0.00 0.00 0.01 0.01 0.01 0.01 0.01 0.02 0.03 0.02 0.02 0.01 0.01 0.01 0.02 0.03 0.05 0.06 0.06 0.06 0.05 0.04 0.03 0.03 0.03 0.03 0.03 0.02 0.02 0.03 0.02 0.02 0.04 0.05 0.14 0.25 0.30 0.53 0.71 0.70 0.72 0.72
0.00 0.00 0.00 0.01 0.02 0.02 0.02 0.02 0.03 0.03 0.02 0.02 0.01 0.01 0.01 0.02 0.02 0.04 0.05 0.05 0.08 0.09 0.07 0.05 0.04 0.04 0.05 0.04 0.03 0.03 0.03 0.02 0.01 0.02 0.05 0.10 0.22 0.40 0.60 0.72 0.78 0.79 0.78
0.01 0.01 0.01 0.02 0.02 0.03 0.02 0.02 0.03 0.03 0.03 0.03 0.04 0.04 0.04 0.03 0.06 0.12 0.11 0.16 0.15 0.17 0.19 0.17 0.15 0.15 0.13 0.08 0.09 0.14 0.09 0.03 0.02 0.02 0.03 0.12 0.23 0.42 0.63 0.71 0.77 0.85 0.87
0.01 0.01 0.02 0.02 0.02 0.02 0.02 0.03 0.03 0.03 0.05 0.05 0.07 0.14 0.18 0.22 0.18 0.09 0.17 0.30 0.41 0.54 0.50 0.46 0.48 0.38 0.30 0.24 0.55 0.79 0.21 0.09 0.09 0.08 0.08 0.14 0.31 0.60 0.75 0.71 0.71 0.78 0.80
0.01 0.01 0.01 0.02 0.03 0.03 0.03 0.03 0.04 0.05 0.09 0.10 0.11 0.19 0.25 0.24 0.16 0.09 0.16 0.34 0.50 0.64 0.60 0.78 0.88 0.69 0.69 0.69 0.82 0.87 0.36 0.29 0.24 0.19 0.21 0.28 0.44 0.72 0.91 0.75 0.68 0.68 0.68
0.03 0.04 0.03 0.03 0.04 0.05 0.06 0.06 0.07 0.07 0.09 0.10 0.15 0.18 0.26 0.31 0.26 0.26 0.34 0.42 0.54 0.64 0.83 0.82 0.97 0.94 0.88 0.86 0.87 0.80 0.63 0.56 0.48 0.48 0.60 0.47 0.47 0.67 0.94 0.82 0.68 0.65 0.69
0.08 0.11 0.11 0.10 0.11 0.12 0.12 0.13 0.11 0.12 0.15 0.16 0.22 0.31 0.40 0.48 0.52 0.59 0.57 0.60 0.57 0.70 0.89 0.96 0.94 1.11 1.20 1.12 0.96 0.86 0.81 0.74 0.63 0.69 0.78 0.68 0.56 0.62 0.80 0.85 0.78 0.75 0.75
0.20 0.26 0.31 0.33 0.36 0.39 0.39 0.38 0.37 0.37 0.42 0.45 0.49 0.55 0.64 0.73 0.89 0.99 0.95 0.93 0.84 0.89 1.02 1.12 1.12 1.49 1.42 1.37 1.09 0.98 0.92 0.86 0.78 0.69 0.70 0.80 0.64 0.51 0.57 0.72 0.82 0.82 0.81
0.46 0.49 0.59 0.67 0.74 0.80 0.78 0.78 0.80 0.85 0.85 0.85 0.87 0.93 1.00 1.03 1.22 1.31 1.32 1.23 1.24 1.22 1.33 1.33 1.45 1.64 1.38 1.32 1.16 1.12 1.03 0.90 0.77 0.74 0.70 0.78 0.73 0.57 0.42 0.47 0.64 0.74 0.83
0.77 0.84 1.03 1.15 1.22 1.26 1.26 1.26 1.30 1.24 1.17 1.10 1.16 1.29 1.32 1.38 1.55 1.64 1.51 1.42 1.66 1.70 1.68 1.73 1.77 1.76 1.63 1.53 1.32 1.07 0.97 0.93 0.67 0.60 0.53 0.53 0.59 0.50 0.45 0.50 0.57 0.63 0.77
1.35 1.51 1.67 1.73 1.72 1.69 1.71 1.74 1.79 1.74 1.57 1.44 1.46 1.51 1.57 1.54 1.62 1.75 1.59 1.64 1.84 1.87 1.86 1.72 1.95 1.89 1.83 1.72 1.39 1.10 0.85 0.69 0.58 0.46 0.39 0.32 0.36 0.38 0.38 0.41 0.41 0.45 0.65
1.71 1.94 2.05 2.07 2.24 2.34 2.34 2.24 2.20 2.02 1.80 1.74 1.77 1.82 1.79 1.72 1.74 1.86 1.73 1.79 1.93 1.97 1.90 1.91 1.97 1.98 1.85 1.75 1.33 1.00 0.81 0.57 0.47 0.41 0.32 0.30 0.26 0.23 0.24 0.32 0.43 0.37 0.49
2.01 2.24 2.44 2.88 3.03 2.95 2.76 2.46 2.28 2.16 2.10 2.01 1.89 1.77 1.75 1.76 1.84 1.99 1.86 1.95 1.95 1.81 1.80 1.96 2.05 1.85 1.64 1.76 1.49 0.94 0.61 0.44 0.39 0.34 0.33 0.34 0.28 0.23 0.21 0.30 0.38 0.43 0.46
2.15 2.44 2.47 2.42 2.55 2.62 2.54 2.44 2.40 2.43 2.19 1.98 1.87 1.72 1.62 1.67 1.77 1.79 1.79 1.75 1.75 1.75 1.74 1.78 1.95 1.75 1.42 1.59 1.51 1.22 0.72 0.53 0.45 0.33 0.34 0.33 0.28 0.27 0.28 0.32 0.41 0.53 0.51
1.57 1.76 1.87 1.90 1.82 1.80 1.87 2.02 2.09 2.14 1.96 1.79 1.71 1.66 1.56 1.54 1.50 1.51 1.52 1.64 1.83 1.87 1.73 1.69 1.72 1.64 1.36 1.35 1.45 1.46 1.00 0.70 0.53 0.28 0.28 0.31 0.39 0.45 0.43 0.48 0.50 0.57 0.59
1.32 1.41 1.43 1.46 1.45 1.48 1.59 1.69 1.70 1.69 1.60 1.58 1.59 1.50 1.45 1.40 1.36 1.34 1.37 1.41 1.45 1.52 1.50 1.38 1.45 1.53 1.48 1.28 1.36 1.38 1.26 1.11 0.92 0.54 0.37 0.37 0.47 0.52 0.55 0.51 0.48 0.49 0.63
0.97 1.08 1.17 1.25 1.25 1.27 1.29 1.34 1.38 1.37 1.38 1.40 1.34 1.28 1.22 1.19 1.25 1.25 1.20 1.18 1.14 1.18 1.28 1.29 1.33 1.34 1.36 1.30 1.27 1.30 1.29 1.27 1.26 1.08 0.72 0.66 0.64 0.53 0.55 0.53 0.49 0.52 0.67
0.88 0.98 1.05 1.10 1.12 1.13 1.14 1.16 1.17 1.18 1.19 1.18 1.15 1.15 1.12 1.08 1.02 1.01 1.04 1.05 1.03 1.08 1.16 1.23 1.26 1.19 1.22 1.25 1.26 1.29 1.30 1.26 1.30 1.34 1.08 0.92 0.80 0.65 0.64 0.58 0.53 0.56 0.67